LA4GY-1 Weather Reports


Display with metric or nautical units.
time (UTC)temp
F
wind
direction
speed
MPH
gust
MPH
rain 1hr
in
rain 24hr
in
rain mn
in
humidity
%
barometer
mb
20260502182005 37 224 0.0 0.0 0.02 0.84 0.84 92 1006.7
20260502164006 37 258 0.0 0.0 0.01 0.82 0.81 90 1006.3
20260502163007 38 258 0.0 0.0 0.01 0.82 0.81 91 1006.4
20260502162007 39 256 0.0 0.0 0.01 0.82 0.81 91 1006.6
20260502161007 39 221 0.0 0.0 0.01 0.82 0.81 91 1006.6
20260502152006 38 211 0.0 0.0 0.06 0.82 0.80 93 1006.6
20260502151006 37 232 0.0 0.0 0.08 0.82 0.80 93 1006.7
20260502123007 41 250 0.0 0.0 0.01 0.63 0.57 87 1006.2
20260502121007 40 254 0.0 0.0 0.01 0.64 0.57 88 1006.0
20260502115006 41 222 0.0 0.0 0.01 0.64 0.57 86 1006.2
20260502114006 41 228 0.0 0.0 0.01 0.64 0.57 84 1006.2
20260502113008 42 224 0.0 0.0 0.00 0.63 0.57 82 1005.9
20260502112008 42 285 0.0 0.0 0.00 0.63 0.57 83 1005.9
20260502111007 42 211 0.0 0.0 0.00 0.63 0.57 80 1005.9
20260502110006 43 217 0.0 0.0 0.00 0.64 0.57 74 1005.8
20260502105006 44 270 0.0 0.0 0.00 0.65 0.57 74 1005.7
20260502104007 44 222 0.0 0.0 0.00 0.67 0.57 73 1005.5
20260502103006 44 311 0.0 0.0 0.00 0.69 0.57 72 1005.4
20260502102006 43 229 0.0 0.0 0.00 0.69 0.57 74 1005.6
20260502101007 44 223 0.0 0.0 0.00 0.70 0.57 73 1005.5
20260502091007 43 200 0.0 0.0 0.00 0.78 0.57 79 1005.2
20260502070006 40 218 0.0 0.0 0.00 0.79 0.57 90 1004.4
20260502065007 40 274 0.0 0.0 0.00 0.79 0.57 89 1004.3
20260502064007 41 266 0.0 0.0 0.00 0.79 0.57 89 1004.0
20260502062007 41 226 0.0 0.0 0.00 0.79 0.57 91 1003.8
20260502061006 41 230 0.0 0.0 0.00 0.79 0.57 91 1003.9
20260502060006 41 215 0.0 0.0 0.01 0.79 0.57 92 1003.9
20260502055007 40 234 0.0 0.0 0.02 0.79 0.57 93 1003.6
20260502053006 41 185 0.0 0.0 0.05 0.79 0.57 93 1003.6
20260502052006 41 221 0.0 0.0 0.08 0.79 0.57 93 1003.3
20260502051006 40 214 0.0 0.0 0.11 0.79 0.57 93 1003.4
20260502050006 40 224 0.0 0.0 0.14 0.78 0.56 93 1003.1
20260502045006 40 209 0.0 0.0 0.17 0.77 0.55 93 1003.0
20260502043006 41 259 0.0 0.0 0.18 0.74 0.52 92 1002.5
20260502041006 43 262 0.0 0.0 0.14 0.68 0.46 93 1002.0
20260502040006 43 237 0.0 0.0 0.12 0.64 0.42 93 1001.8
20260502034008 43 216 0.0 0.0 0.10 0.57 0.35 93 1001.8
20260502033006 44 217 0.0 0.0 0.09 0.56 0.34 93 1002.1
20260502032006 44 245 0.0 0.0 0.09 0.54 0.32 93 1002.3
20260502031006 44 211 0.0 0.0 0.09 0.54 0.31 93 1002.5
20260502030006 44 263 0.0 0.0 0.09 0.52 0.30 93 1002.6
20260502025006 44 239 0.0 0.0 0.09 0.49 0.27 93 1002.6
20260502024007 44 299 0.0 0.0 0.09 0.47 0.25 93 1002.7
20260502023006 44 248 0.0 0.0 0.09 0.46 0.24 93 1002.8
20260502022006 44 286 0.0 0.0 0.09 0.46 0.24 93 1003.1
20260502021006 44 267 0.0 0.0 0.09 0.45 0.23 93 1003.1
20260502020006 44 210 0.0 0.0 0.10 0.43 0.21 93 1003.2
20260502015006 45 253 0.0 0.0 0.10 0.40 0.18 93 1003.3
20260502014006 45 275 0.0 0.0 0.13 0.39 0.17 93 1003.3
20260502013007 45 212 0.0 0.0 0.13 0.38 0.16 93 1003.7
20260502012007 45 223 0.0 0.0 0.13 0.36 0.14 92 1003.8
20260502011006 45 218 0.0 0.0 0.12 0.35 0.13 92 1003.7
20260502010006 45 268 0.0 0.0 0.09 0.33 0.11 92 1004.0
20260502005006 45 230 0.0 0.0 0.07 0.30 0.08 92 1004.2
20260502004006 45 243 0.0 0.0 0.04 0.26 0.04 92 1004.3
20260502003006 46 220 0.0 0.0 0.02 0.24 0.02 92 1004.5
20260502002006 46 216 0.0 0.0 0.02 0.24 0.02 91 1004.6
20260502001006 46 232 0.0 0.0 0.02 0.24 0.02 91 1004.7
20260502000005 46 233 0.0 0.0 0.02 0.24 0.02 90 1004.7
20260501235006 46 245 0.0 0.0 0.01 0.23 0.01 89 1004.8
20260501234006 46 217 0.0 0.0 0.00 0.22 0.00 88 1004.8
20260501232007 46 222 0.0 0.0 0.00 0.22 0.00 87 1004.9
20260501231008 46 225 0.0 0.0 0.00 0.22 0.00 88 1005.0
20260501230005 46 224 0.0 0.0 0.00 0.22 0.00 88 1005.3
20260501225007 46 219 0.0 0.0 0.00 0.22 0.00 88 1005.4
20260501224006 46 207 0.0 0.0 0.00 0.22 0.00 89 1005.5
20260501222005 46 236 0.0 0.0 0.00 0.22 0.00 89 1005.8
20260501221008 46 267 0.0 0.0 0.00 0.22 0.00 89 1005.8
20260501214006 46 333 0.0 0.0 0.00 0.22 0.22 90 1006.3
20260501213006 45 169 0.0 0.0 0.00 0.22 0.22 91 1006.4
20260501210006 45 166 0.0 0.0 0.00 0.22 0.22 91 1006.8
20260501205007 45 268 0.0 0.0 0.00 0.22 0.22 92 1007.1
20260501204007 45 271 0.0 0.0 0.00 0.22 0.22 92 1007.3
20260501203006 45 270 0.0 0.0 0.00 0.22 0.22 92 1007.5
20260501202006 45 270 0.0 0.0 0.00 0.22 0.22 92 1007.6
20260501200005 45 270 0.0 0.0 0.00 0.22 0.22 92 1007.7
20260501193006 45 259 0.0 0.0 0.00 0.22 0.22 91 1008.4
20260501192006 45 232 0.0 0.0 0.00 0.22 0.22 92 1008.5
20260501191006 45 259 0.0 0.0 0.00 0.22 0.22 92 1008.5
20260501190005 45 254 0.0 0.0 0.00 0.22 0.22 92 1008.5
20260501183007 45 251 0.0 0.0 0.00 0.22 0.22 92 1008.7